Wetbulb
64.25 63.93 65.84 65.68 63.92 63.08 67.24 69.56 69.60 69.81 68.90 69.32 70.03 69.42 69.51 70.59 70.84 70.65 71.08 70.91 71.89 71.47 70.93 70.62 72.35 71.00 67.35 67.15 67.04 67.40 68.81 72.18 72.13
63.09 63.66 64.75 62.78 63.73 64.94 67.75 69.18 69.86 70.64 70.83 70.58 69.26 69.02 71.38 70.59 69.93 71.38 72.22 71.46 71.77 72.00 71.25 69.96 69.24 66.66 66.30 67.24 67.96 66.99 66.68 69.65 72.03
61.57 63.42 64.85 63.86 64.42 66.12 68.44 69.27 70.03 70.36 70.73 69.91 70.41 67.81 68.23 68.68 71.83 70.71 71.21 72.90 73.59 73.11 72.26 71.39 67.60 66.32 67.57 67.88 67.27 66.52 66.90 67.80 71.42
64.71 65.78 65.09 63.38 64.83 67.22 69.00 69.87 69.43 69.29 69.16 66.52 67.48 66.58 66.20 67.27 72.61 71.43 71.18 71.13 71.58 72.83 72.77 71.32 67.13 67.53 68.24 66.95 66.03 66.39 67.19 68.05 71.00
65.11 65.47 64.40 64.36 65.77 66.46 67.93 68.73 68.56 68.74 67.02 67.38 66.18 65.86 66.50 67.89 72.40 74.17 72.74 72.24 71.80 72.09 72.81 72.51 68.12 68.07 66.92 64.41 65.56 67.10 69.09 70.18 71.31
65.14 64.87 63.67 64.01 63.83 63.11 63.92 65.61 66.00 66.54 64.52 64.07 65.07 65.12 65.23 65.23 69.93 74.43 74.11 74.13 73.63 74.48 74.21 72.35 70.19 68.59 68.52 65.59 66.79 67.48 68.81 69.70 70.73
65.28 64.30 63.40 62.85 62.90 62.69 63.27 64.23 64.52 65.17 65.47 64.44 64.08 64.69 66.11 67.47 72.40 74.86 74.83 75.08 74.94 75.14 74.76 72.91 71.34 70.06 69.17 67.51 66.66 66.81 67.75 69.11 69.90
65.18 64.40 63.23 63.12 63.14 62.87 62.46 62.94 63.56 64.48 65.81 67.10 66.84 65.53 66.14 67.92 71.60 74.30 74.48 74.16 74.49 74.86 73.47 71.11 70.25 69.28 67.31 65.92 67.17 67.17 66.52 67.54 68.33
65.61 65.95 66.88 66.82 65.92 64.73 64.22 63.99 65.34 67.74 68.06 69.15 70.44 71.30 71.56 72.62 71.60 72.27 72.38 73.22 72.81 72.37 71.46 69.46 66.26 65.52 66.52 65.61 66.03 66.15 66.46 68.04 67.55
66.66 67.97 68.80 68.83 68.51 68.23 68.09 68.63 69.98 69.80 70.55 70.93 70.03 70.56 72.41 73.32 72.90 71.50 70.91 71.38 70.91 69.93 69.16 69.81 68.20 66.46 65.63 65.32 65.83 65.88 66.65 68.38 65.80
63.52 64.77 65.59 66.04 65.66 66.05 66.78 68.35 69.91 69.87 69.91 70.49 70.31 70.71 70.97 71.80 72.01 72.51 70.49 70.18 70.54 71.42 70.37 69.67 69.13 69.17 68.99 67.89 68.05 65.40 64.60 65.30 61.74
62.85 65.07 64.92 63.87 64.24 64.96 66.52 67.37 68.24 68.09 67.58 67.60 67.52 66.90 67.08 68.27 68.78 69.06 69.78 69.06 69.20 68.27 68.14 67.91 66.72 65.50 64.35 63.39 64.20 62.82 62.14 61.50 59.99
64.78 65.49 64.88 63.49 63.01 62.97 63.87 64.12 65.92 64.92 64.13 63.69 64.04 64.79 65.06 65.23 65.21 65.43 65.43 66.12 67.35 69.13 69.58 69.49 68.36 67.22 66.05 64.15 63.86 61.79 60.88 60.54 59.30
62.99 63.66 62.75 62.18 61.55 60.92 60.86 60.76 61.36 61.89 62.87 62.66 63.97 64.44 64.08 63.86 63.84 64.00 64.84 64.24 64.07 64.74 64.71 65.92 67.22 68.00 67.98 66.43 64.31 63.37 59.88 59.48 60.01
60.39 61.00 60.37 59.96 58.49 58.53 59.45 59.72 59.79 58.87 60.21 62.09 62.50 62.13 61.31 61.46 62.02 63.91 65.26 63.08 62.82 63.09 62.77 62.11 62.22 64.37 66.90 68.61 67.31 61.46 60.58 59.17 58.94
58.25 58.37 58.32 58.56 58.54 58.71 59.50 59.91 59.27 58.13 60.40 61.13 60.55 60.63 60.10 60.46 61.40 62.24 62.64 61.72 61.41 60.68 60.41 60.51 61.05 61.91 62.46 63.64 66.12 69.31 63.45 61.37 60.94
57.28 57.67 58.18 58.92 58.70 58.35 59.03 59.88 59.95 59.45 59.87 60.21 60.47 59.70 59.61 59.33 58.38 58.22 58.92 59.49 59.90 59.33 59.33 59.27 60.28 61.23 61.37 61.79 62.91 64.17 65.89 66.67 66.67
58.08 58.37 58.73 58.72 58.21 57.99 57.73 58.55 58.99 59.13 59.80 60.05 60.25 59.23 58.04 57.48 57.52 57.48 57.95 58.09 58.51 59.01 59.78 59.74 59.65 59.62 60.13 60.64 60.95 62.25 59.97 60.46 65.12
58.58 57.65 57.43 57.18 57.14 57.03 57.77 58.69 58.64 58.49 58.58 58.33 57.36 57.34 57.36 57.06 57.14 57.85 57.69 57.67 58.44 55.55 54.26 52.71 50.77 50.39 53.66 59.89 55.04 52.30 51.39 50.06 49.11
56.54 57.01 57.62 57.92 58.19 57.41 55.88 56.67 57.39 58.13 58.72 58.18 57.23 55.59 55.88 56.48 56.38 57.10 57.69 57.70 57.37 56.85 57.77 52.63 51.44 50.32 50.08 48.88 50.54 49.12 48.24 47.03 46.60
MSLP
1009.42 1009.81 1009.46 1009.86 1010.48 1011.37 1011.41 1012.22 1013.03 1013.58 1013.51 1014.42 1015.61 1016.86 1017.66 1017.63 1016.93 1016.49 1016.28 1016.20 1016.35 1016.73 1016.95 1016.78 1017.14 1017.65 1018.12 1018.51 1018.58 1018.59 1018.44 1018.40 1017.94
1009.39 1009.53 1009.26 1010.34 1010.34 1010.40 1010.80 1011.60 1012.12 1012.98 1014.63 1015.75 1016.30 1017.40 1017.47 1017.00 1017.12 1016.96 1016.48 1016.53 1016.42 1016.14 1016.27 1016.89 1017.34 1017.24 1017.19 1017.00 1016.86 1017.12 1017.44 1017.71 1017.57
1009.72 1009.68 1009.50 1010.12 1010.13 1010.37 1010.66 1011.35 1011.95 1012.95 1013.57 1014.62 1014.13 1014.40 1015.71 1016.63 1016.48 1016.21 1016.27 1016.21 1015.51 1015.54 1015.96 1016.35 1016.55 1016.70 1016.45 1016.19 1015.95 1016.22 1016.40 1016.81 1016.68
1010.02 1010.03 1009.97 1009.68 1009.87 1010.59 1010.98 1011.35 1011.81 1012.03 1012.14 1013.30 1013.34 1012.73 1013.45 1015.83 1016.39 1015.76 1015.78 1015.69 1015.20 1015.08 1015.65 1015.99 1016.26 1016.14 1015.61 1015.74 1015.80 1016.09 1015.77 1015.74 1016.07
1009.87 1010.03 1010.15 1010.50 1010.78 1011.19 1011.52 1011.58 1011.68 1012.11 1013.20 1013.63 1013.56 1013.11 1014.82 1015.90 1015.40 1014.70 1014.59 1014.71 1014.50 1014.59 1014.77 1015.30 1015.64 1015.75 1015.30 1015.64 1015.74 1015.44 1015.06 1014.44 1015.13
1010.34 1010.78 1010.94 1011.29 1011.59 1012.01 1012.22 1012.24 1012.36 1012.69 1013.63 1013.95 1014.15 1014.94 1015.00 1014.79 1014.23 1014.14 1013.89 1013.93 1013.87 1014.15 1014.19 1014.78 1015.17 1015.10 1015.08 1015.26 1015.12 1015.03 1014.62 1014.31 1014.47
1010.44 1010.88 1011.22 1011.55 1011.84 1012.02 1012.04 1012.06 1011.85 1011.67 1012.45 1012.64 1012.87 1012.99 1013.47 1013.87 1013.57 1013.24 1013.14 1013.22 1013.29 1013.33 1013.67 1014.01 1014.48 1014.59 1014.51 1014.68 1014.66 1014.57 1014.52 1014.52 1014.00
1010.61 1010.89 1011.30 1011.45 1011.71 1012.00 1012.08 1012.14 1012.20 1012.09 1012.00 1012.31 1013.06 1013.24 1013.48 1012.99 1012.60 1012.64 1012.58 1012.66 1012.79 1012.97 1013.30 1013.66 1014.01 1013.99 1013.84 1014.15 1014.45 1014.46 1014.69 1014.67 1014.36
1010.32 1010.57 1010.84 1011.04 1011.16 1011.41 1011.67 1011.66 1011.95 1012.10 1012.16 1012.29 1012.47 1012.72 1012.54 1012.19 1012.12 1012.04 1011.96 1012.31 1012.71 1012.79 1013.05 1013.34 1013.64 1013.67 1013.59 1013.72 1013.78 1013.92 1014.42 1014.55 1014.40
1009.59 1010.04 1010.44 1010.84 1011.03 1011.26 1011.53 1011.63 1011.43 1011.83 1012.14 1012.17 1012.31 1012.25 1011.87 1011.75 1011.85 1011.91 1012.32 1012.42 1012.57 1012.79 1013.04 1013.18 1013.24 1013.36 1013.36 1013.34 1013.11 1013.00 1013.20 1013.56 1013.81
1009.40 1009.89 1010.55 1011.08 1011.36 1011.55 1011.71 1011.68 1011.96 1012.08 1012.25 1012.47 1012.73 1012.63 1012.74 1012.81 1012.86 1012.62 1012.61 1012.63 1012.60 1012.67 1012.81 1012.83 1012.84 1012.71 1012.75 1012.85 1012.62 1012.66 1012.86 1013.16 1013.26
1009.18 1009.92 1010.67 1011.13 1011.65 1011.93 1012.15 1012.30 1012.54 1012.57 1012.92 1012.95 1013.12 1013.37 1013.39 1013.36 1013.16 1013.02 1013.05 1013.13 1013.00 1013.15 1013.07 1012.67 1012.36 1012.17 1012.32 1012.48 1012.26 1012.31 1012.44 1012.83 1012.94
1009.71 1010.19 1010.70 1011.17 1011.60 1011.99 1012.34 1012.98 1013.11 1013.34 1013.75 1013.72 1013.78 1013.85 1013.94 1013.76 1013.55 1013.53 1013.37 1013.36 1013.35 1013.16 1012.96 1012.76 1012.58 1012.19 1012.03 1011.97 1011.69 1011.57 1011.70 1012.05 1012.36
1009.76 1010.24 1010.77 1011.03 1011.48 1011.94 1012.28 1012.55 1012.72 1013.40 1013.70 1013.92 1013.84 1013.75 1013.82 1013.88 1013.77 1013.65 1013.50 1013.41 1013.21 1013.05 1012.84 1012.54 1012.28 1012.11 1011.77 1011.56 1011.33 1011.15 1011.14 1011.48 1011.73
1010.38 1010.75 1011.19 1011.33 1011.78 1012.33 1012.49 1012.42 1012.56 1013.37 1013.59 1013.60 1013.63 1013.67 1013.77 1013.76 1013.63 1013.46 1013.27 1013.23 1013.07 1012.89 1012.79 1012.54 1012.23 1012.04 1011.63 1011.22 1010.92 1010.76 1010.52 1010.50 1010.70
1010.95 1011.08 1011.40 1011.78 1012.15 1012.57 1012.70 1012.58 1012.49 1013.07 1013.08 1013.16 1013.27 1013.29 1013.24 1013.21 1013.20 1013.16 1013.04 1013.04 1012.91 1012.75 1012.51 1012.34 1012.06 1011.80 1011.47 1011.00 1010.69 1010.37 1010.11 1009.85 1009.89
1011.63 1011.66 1011.72 1011.95 1012.27 1012.45 1012.46 1012.28 1012.32 1012.38 1012.56 1012.65 1012.86 1012.94 1012.95 1012.97 1012.96 1012.76 1012.62 1012.57 1012.50 1012.33 1012.18 1011.97 1011.73 1011.45 1011.12 1010.71 1010.33 1010.12 1009.84 1009.70 1009.54
1011.21 1011.78 1011.85 1011.95 1012.07 1012.10 1012.20 1012.28 1012.45 1012.49 1012.49 1012.59 1012.71 1012.80 1012.84 1012.84 1012.77 1012.58 1012.27 1011.97 1011.71 1011.39 1011.08 1010.87 1010.73 1010.55 1010.27 1010.08 1009.69 1009.29 1009.12 1009.14 1009.19
1011.03 1011.48 1011.95 1012.07 1012.42 1012.53 1012.43 1012.40 1012.57 1012.46 1012.38 1012.45 1012.63 1012.73 1012.67 1012.57 1012.41 1012.16 1011.89 1011.49 1010.85 1010.37 1010.04 1009.76 1009.65 1009.45 1009.45 1008.90 1008.61 1008.35 1008.25 1008.21 1008.22
1011.31 1011.83 1011.72 1012.15 1012.59 1012.58 1012.56 1012.36 1012.48 1012.39 1012.20 1012.23 1012.34 1012.43 1012.33 1012.20 1012.04 1011.82 1011.45 1010.93 1010.49 1009.85 1009.08 1008.77 1008.45 1008.12 1007.88 1007.92 1007.80 1007.57 1007.51 1007.43 1007.40
Wind_Speed
8 10 18 14 9 7 9 13 11 11 10 7 2 5 7 9 8 7 8 8 6 4 5 5 4 9 9 7 5 5 8 8 7
9 10 14 6 7 10 11 13 12 10 8 11 12 10 9 7 9 9 8 5 4 5 4 2 6 6 7 7 4 5 4 5 10
7 8 11 7 8 7 8 11 10 14 15 14 15 7 12 12 13 11 7 6 8 7 4 7 8 7 7 6 4 3 3 4 8
8 8 6 3 7 7 11 12 13 14 12 12 12 9 16 9 16 11 10 10 9 5 4 8 9 9 9 6 1 2 4 3 8
4 2 3 5 6 7 8 10 6 5 12 12 10 9 9 15 16 14 8 9 8 6 9 6 10 9 6 5 6 10 9 4 9
6 4 4 5 6 6 5 6 7 6 11 9 8 9 8 9 10 13 12 10 7 7 7 6 8 8 7 7 8 5 6 5 9
7 6 7 4 4 6 6 7 8 7 5 2 2 2 2 7 13 13 11 9 7 7 7 6 8 9 10 9 7 6 7 8 12
8 7 7 8 8 7 7 5 6 6 6 2 5 6 8 13 13 11 7 6 6 7 6 5 7 7 7 6 5 6 6 9 11
14 12 10 8 7 7 8 8 7 6 6 6 4 6 7 7 7 6 3 5 5 5 5 6 6 7 7 7 6 9 11 9 7
15 14 12 10 8 7 6 7 7 7 6 5 5 6 3 1 4 1 2 4 4 6 6 5 6 6 6 7 8 9 11 9 5
10 9 7 6 5 4 1 1 1 4 4 3 4 5 5 6 4 3 2 2 3 2 3 5 5 6 6 5 7 9 9 6 4
7 8 7 7 6 6 6 7 7 8 7 7 7 7 6 6 7 6 5 5 5 5 4 4 5 4 6 7 8 10 8 4 3
9 9 9 9 8 7 9 6 8 8 6 5 6 5 4 4 5 5 5 4 4 3 3 4 4 6 6 8 10 8 7 7 3
8 10 10 8 7 8 8 7 7 8 6 5 2 2 2 2 1 1 2 3 2 3 4 5 5 5 6 7 7 10 10 8 5
9 10 8 7 8 7 5 6 8 7 6 4 4 3 2 2 3 3 3 3 3 4 5 6 6 5 6 5 7 11 11 13 14
6 7 7 5 7 7 5 6 7 7 6 5 4 2 3 3 3 4 4 4 5 4 5 4 5 5 6 7 5 5 12 14 14
5 5 6 5 7 5 3 2 2 2 3 4 3 4 5 5 5 7 5 4 4 4 5 4 5 6 6 7 7 6 4 5 6
8 6 4 5 5 4 4 3 3 2 4 3 5 5 6 6 5 6 7 6 6 6 7 7 6 6 6 6 8 8 9 9 6
8 8 4 3 4 3 2 0 2 3 2 1 1 4 4 4 4 5 5 6 8 11 15 15 15 16 13 10 13 15 16 16 15
4 2 4 4 4 3 2 2 1 2 2 2 4 5 6 4 5 5 6 7 7 9 9 15 18 19 19 17 19 16 16 16 13
Wind_Direction
137 187 214 198 207 169 179 145 179 188 178 169 87 32 317 303 266 235 233 223 214 211 210 216 16 65 82 58 38 359 341 301 257
195 214 236 137 182 198 167 154 169 160 94 78 60 21 336 273 277 265 253 249 239 213 204 124 126 134 148 163 207 240 241 283 286
234 263 270 155 193 164 125 134 121 112 127 166 180 194 273 278 264 250 258 240 228 218 182 146 162 180 195 208 282 97 198 303 286
207 229 270 305 147 123 129 134 148 169 157 144 161 172 260 272 266 241 229 240 256 242 171 165 174 198 212 215 41 260 233 210 274
180 321 14 62 91 116 147 158 187 171 148 186 189 188 194 230 257 249 225 227 245 222 235 166 186 211 209 189 181 216 217 158 245
166 167 100 105 107 127 164 200 215 195 161 178 167 171 197 236 267 246 239 233 224 215 221 171 200 208 229 211 234 208 284 290 276
177 165 157 162 158 194 201 214 232 221 143 144 222 92 292 258 252 235 229 232 225 217 221 184 203 212 222 216 223 206 255 269 272
162 168 179 185 174 198 214 254 294 311 311 265 177 226 223 244 247 242 228 221 217 221 206 193 215 227 231 229 205 203 221 261 274
171 177 187 195 195 187 202 211 224 246 255 255 244 252 229 224 203 212 217 233 214 203 206 221 208 225 226 245 239 222 218 220 241
169 175 179 184 193 197 205 215 205 211 205 223 215 221 229 18 81 85 239 228 199 212 226 233 234 237 226 242 254 255 253 254 228
160 152 145 138 139 140 198 235 129 86 84 77 90 24 30 19 346 347 341 285 265 218 202 224 231 241 237 249 261 247 252 240 233
137 138 133 126 130 119 93 75 69 78 59 60 58 57 49 42 44 35 26 9 318 306 286 259 249 246 262 250 259 221 243 199 241
121 127 139 139 128 123 111 123 124 107 102 79 63 56 52 40 35 33 12 354 344 301 286 278 275 271 250 262 275 268 235 190 209
133 135 136 127 120 121 132 135 111 100 108 97 128 80 58 51 36 303 241 300 301 314 319 317 308 286 275 266 254 271 261 207 214
137 140 139 131 123 124 134 125 110 120 122 180 180 184 220 268 275 284 303 304 293 305 310 305 293 276 279 258 258 247 252 243 216
147 145 134 117 127 131 141 144 136 139 198 195 206 230 289 276 253 243 246 246 271 290 287 281 287 288 289 288 276 258 250 254 251
123 126 126 133 131 134 148 170 168 190 207 211 223 249 259 267 272 280 274 251 236 238 252 253 250 266 273 275 279 276 265 247 255
144 153 170 174 161 175 220 195 259 302 309 315 292 298 297 296 287 281 281 260 245 240 234 217 248 244 240 256 269 267 251 259 268
161 185 177 178 214 212 236 353 325 327 349 47 287 292 286 272 274 275 268 273 283 251 245 256 247 250 246 260 248 269 268 268 267
134 159 151 159 173 160 182 163 252 268 278 278 283 271 283 277 268 265 268 270 266 274 270 247 252 256 260 247 251 257 258 259 267